Probability
0 0 0 0 0 0 0 0 0 0 0 0 0 0 0 0 0 0 0 0 0 0 0 0 0 0 0 0 0 1 2 2 2 1 0 0 0 0 0 0 0 0 0
0 0 0 0 0 0 0 0 0 0 0 0 0 0 0 0 0 0 0 0 0 0 0 0 0 0 0 0 0 0 1 1 1 0 0 0 0 0 0 0 0 0 0
0 0 0 0 0 0 0 0 0 0 0 0 0 0 0 0 0 0 0 0 0 0 0 0 0 0 0 0 0 0 0 0 0 0 0 0 0 0 0 0 0 0 0
0 0 0 0 0 0 0 0 0 0 0 0 0 0 0 0 0 0 0 0 0 0 0 0 0 0 0 0 0 0 0 0 0 0 0 0 0 0 0 0 0 0 0
0 0 0 0 0 0 0 0 0 0 0 0 0 0 0 0 0 0 0 0 0 0 0 0 0 0 0 0 0 0 0 0 0 0 0 0 0 0 0 0 0 0 0
0 0 0 0 0 0 0 0 0 0 0 0 0 0 0 0 0 0 0 0 0 0 0 0 0 0 0 0 0 0 0 0 0 0 0 0 0 0 0 0 0 0 0
1 1 0 0 0 0 0 0 0 0 0 0 0 0 0 0 0 0 0 0 0 0 0 0 0 0 0 0 0 0 0 0 0 0 0 0 0 0 0 0 0 0 0
2 2 1 0 0 0 0 0 0 0 0 0 0 0 0 0 0 0 0 0 0 0 0 0 0 0 0 0 0 0 0 0 0 0 0 0 0 0 0 0 0 0 0
2 3 2 1 0 0 0 0 0 0 0 0 0 0 0 0 0 0 0 0 0 0 0 0 0 0 0 0 0 0 0 0 0 0 0 0 0 0 0 0 0 0 0
1 2 3 3 2 2 2 2 1 0 0 0 0 0 0 0 0 0 0 0 0 0 0 0 0 0 0 0 0 0 0 0 0 0 0 0 0 0 0 0 0 0 0
5 5 6 6 6 5 5 6 4 1 1 1 1 0 0 0 0 0 0 0 0 0 0 0 0 0 0 0 0 0 0 0 0 0 0 0 0 0 0 0 0 0 0
8 8 10 11 9 8 10 12 10 7 7 6 4 2 1 0 0 0 0 0 0 0 0 0 0 0 0 0 0 0 0 0 0 0 0 0 0 0 0 0 0 0 0
7 8 10 11 10 13 17 19 19 19 17 13 9 7 4 1 0 0 0 0 0 0 0 0 0 0 0 0 0 0 0 0 0 0 0 0 0 0 0 0 0 0 0
4 4 5 6 7 12 19 22 23 24 23 19 14 11 7 3 0 0 1 1 1 0 0 0 0 0 0 0 0 0 0 0 0 0 0 0 0 0 0 0 0 0 0
1 1 1 2 2 6 12 16 18 20 22 22 20 15 11 7 2 0 1 2 1 0 0 0 0 0 0 0 0 0 0 0 0 0 0 0 0 0 0 0 0 0 0
0 0 0 0 0 2 4 8 12 15 18 22 25 21 16 12 7 3 2 1 1 0 0 0 0 0 0 0 0 0 0 0 0 0 0 0 0 0 0 0 0 0 0
0 0 0 0 0 0 1 3 7 11 16 22 26 26 22 18 13 10 7 3 0 0 0 0 0 0 0 0 0 0 0 0 0 0 0 0 0 0 0 0 0 0 0
0 0 0 0 0 0 0 1 3 7 14 23 29 31 28 23 21 21 19 12 5 3 2 0 0 0 0 0 0 0 0 0 0 0 0 0 0 0 0 0 0 0 0
0 0 0 0 0 0 0 0 2 6 13 23 32 36 33 29 30 34 33 25 17 13 7 2 1 1 1 0 0 0 0 0 0 0 0 0 0 0 0 0 0 0 0
0 0 0 0 0 0 0 0 2 6 15 23 30 36 37 37 38 42 43 38 32 25 14 7 4 3 2 1 0 0 0 0 0 0 0 0 0 0 0 0 0 0 0
0 0 0 0 0 0 0 0 1 6 14 21 27 32 36 40 42 46 49 48 44 35 22 14 11 6 3 1 0 0 0 0 0 0 0 0 0 0 0 0 0 0 0
0 0 0 0 0 0 0 0 1 5 12 18 25 32 38 43 46 49 53 53 52 42 28 19 14 8 3 2 0 0 0 0 0 0 0 0 0 0 0 0 0 0 0
0 0 0 0 0 0 0 0 1 4 8 15 24 34 43 49 52 54 55 53 53 46 34 24 17 9 4 1 0 0 0 0 0 0 0 0 0 0 0 0 0 0 0
0 0 0 0 0 0 0 0 1 2 4 9 17 27 39 47 52 57 59 57 54 48 40 33 24 14 7 2 0 0 0 0 0 0 0 0 0 0 0 0 0 0 0
0 0 0 0 0 0 0 0 1 0 0 3 7 15 25 35 44 52 58 61 60 52 45 38 29 21 12 5 3 1 0 0 0 0 0 0 0 0 0 0 0 0 0
0 0 0 0 0 0 0 0 1 0 0 1 4 9 17 26 36 46 52 60 62 56 47 36 27 23 16 9 6 3 1 0 0 0 0 0 0 0 0 0 0 0 0
Wind_Speed
11 13 13 11 10 9 8 8 8 8 7 7 6 6 6 5 5 5 4 4 3 3 3 3 4 4 5 6 6 7 8 8 7 7 8 9 9 9 9 9 6 7 10
14 14 13 12 10 9 8 8 8 8 7 7 6 6 5 5 5 4 4 4 4 3 3 3 3 4 4 4 5 6 6 5 4 4 5 8 9 9 9 11 11 6 9
15 14 12 12 11 9 8 8 7 7 7 7 6 6 5 5 5 4 4 4 4 3 3 3 3 3 4 4 4 4 4 3 4 4 3 2 6 9 8 9 9 9 8
15 13 12 12 10 9 8 7 7 6 6 6 6 5 5 4 4 4 4 4 4 4 4 4 4 4 4 3 3 2 2 3 5 6 2 4 6 8 8 8 8 8 7
13 12 13 12 10 9 7 7 6 6 6 5 5 5 4 4 3 3 3 3 3 3 3 4 4 4 4 3 2 1 1 4 6 6 4 6 5 6 7 7 7 7 7
13 13 13 12 10 9 7 7 6 5 5 5 5 4 4 4 3 3 3 3 3 3 3 3 4 4 4 4 2 2 2 4 6 2 4 5 5 6 7 7 6 7 6
12 14 13 12 10 9 8 7 6 6 6 5 5 5 4 4 4 3 3 3 3 2 3 3 3 4 4 3 2 2 3 5 4 1 5 6 5 6 7 6 6 6 6
11 13 13 13 12 10 9 8 8 7 7 7 6 6 6 5 5 4 4 3 3 3 2 2 3 4 4 3 3 2 3 6 3 3 7 6 6 6 6 6 6 6 6
8 12 12 12 11 12 11 10 10 9 8 8 8 8 7 7 6 6 6 5 5 4 3 3 3 4 4 4 4 3 4 5 5 1 8 5 7 6 6 6 5 5 5
5 5 8 10 11 11 10 12 12 12 11 10 9 9 9 8 8 9 8 8 7 6 5 4 4 4 5 5 5 5 5 6 4 2 5 6 8 6 5 5 5 5 5
7 6 4 2 3 7 9 13 13 12 11 10 9 11 9 6 8 8 11 11 10 8 7 6 6 6 6 7 7 7 5 4 3 4 5 9 8 6 5 4 4 5 5
9 10 9 8 5 3 2 5 6 7 7 7 6 7 6 7 6 9 11 14 13 10 9 9 8 8 6 5 7 7 4 7 4 4 6 11 9 6 5 4 4 5 5
8 9 9 8 8 7 4 1 2 2 3 5 6 6 6 6 4 5 5 8 8 9 6 7 7 6 7 6 6 6 7 5 2 4 7 10 8 6 5 5 5 4 5
6 6 7 7 5 5 5 4 1 0 1 2 4 5 5 4 4 4 4 6 7 6 6 6 6 9 10 10 8 9 8 3 3 5 6 10 8 6 6 6 5 5 4
4 4 4 5 5 4 3 2 3 2 1 1 1 2 4 4 4 4 3 4 6 7 7 5 7 9 8 7 8 8 7 6 6 7 6 10 9 7 6 7 7 6 5
6 6 4 4 3 4 3 2 2 2 2 1 2 3 3 4 4 3 4 4 4 4 6 6 7 5 3 2 3 4 4 5 6 9 8 8 10 9 7 7 7 7 6
9 8 7 6 4 4 4 4 3 2 3 2 3 3 3 3 4 5 4 4 3 3 4 5 6 4 3 3 2 2 2 4 5 8 10 7 6 8 9 8 7 6 7
10 9 8 8 6 5 4 4 3 3 3 3 3 3 4 4 5 5 4 4 4 3 2 3 2 2 2 3 2 2 2 3 2 4 7 8 8 7 8 9 8 6 6
9 10 11 9 8 6 5 4 4 4 4 3 3 3 4 5 6 4 4 4 4 2 2 3 2 2 2 2 3 3 3 4 4 4 5 6 8 9 7 9 10 8 7
9 10 11 9 8 7 4 4 3 4 3 3 3 4 5 4 5 4 4 5 4 2 2 2 2 2 1 2 3 3 3 3 4 4 4 3 6 9 10 9 7 7 9
11 11 11 10 9 6 4 4 4 4 3 3 3 4 5 5 6 5 4 4 4 3 3 3 2 2 2 1 1 1 1 2 4 4 4 3 4 6 9 10 8 6 5
11 12 13 11 10 9 6 5 5 5 4 4 3 4 5 6 6 6 6 5 5 4 4 4 3 2 2 2 1 1 1 2 2 2 3 4 4 4 6 8 8 9 8
12 13 12 11 10 9 8 6 6 5 4 4 4 4 4 5 5 6 7 6 6 6 6 6 5 5 4 3 3 3 3 4 2 2 3 3 3 2 3 3 5 8 10
12 12 12 11 10 9 8 6 7 5 5 6 5 4 4 4 5 5 6 7 7 6 7 8 7 6 7 5 4 3 3 3 3 2 2 1 2 3 3 3 3 4 7
11 10 9 10 9 9 8 7 6 5 5 5 5 5 5 4 4 3 4 5 6 6 7 8 7 8 7 7 6 4 4 2 2 3 2 1 0 0 0 1 1 2 4
9 9 9 9 9 9 9 8 7 7 7 6 6 5 4 3 3 3 3 3 4 5 6 7 7 8 8 8 7 6 5 4 4 4 3 3 2 1 0 0 1 1 2
Wind_Direction
125 125 133 126 119 111 105 104 108 113 116 116 115 112 106 100 91 80 71 63 54 50 53 58 63 70 72 68 62 57 55 53 55 67 75 73 68 61 52 44 66 86 84
124 126 134 131 126 120 114 111 113 114 115 116 115 112 107 103 99 95 88 78 70 64 63 69 78 81 82 78 70 63 56 44 37 52 87 87 76 66 58 57 69 79 81
122 128 137 136 134 130 126 123 121 120 120 119 118 116 113 110 105 102 99 92 86 84 86 86 100 102 99 88 77 64 51 17 346 335 318 101 90 69 64 67 75 78 78
126 138 139 139 139 138 136 134 131 129 127 126 125 122 120 118 113 108 107 101 97 95 99 103 117 124 118 104 85 62 27 324 312 317 2 84 80 72 67 71 74 76 78
126 129 128 144 144 146 145 143 141 141 139 139 137 135 131 128 124 117 112 109 103 100 106 116 127 132 134 126 117 124 274 292 305 316 65 79 74 73 72 73 74 76 79
128 125 135 148 152 155 156 157 158 159 157 158 156 153 149 148 144 139 130 120 113 110 114 122 137 143 143 144 154 185 242 278 294 321 83 92 86 76 74 73 75 76 76
133 131 143 153 159 165 170 175 178 179 177 178 177 175 174 173 168 164 158 145 132 126 124 135 149 154 154 151 160 193 248 280 269 206 104 93 91 83 75 72 74 78 76
131 136 144 160 166 174 181 188 193 194 193 194 193 193 193 192 191 189 180 169 157 149 145 154 167 170 172 172 179 206 257 287 276 133 106 94 93 85 77 71 72 77 79
131 141 153 165 174 182 190 195 200 202 203 202 203 206 208 207 205 200 195 188 177 171 171 173 180 183 185 189 193 211 252 276 293 167 118 105 100 90 82 75 75 78 84
75 119 157 168 175 181 191 199 202 205 207 208 209 212 213 215 214 212 204 199 191 187 188 188 193 196 198 201 203 214 244 283 271 99 109 116 111 103 94 87 85 88 90
31 22 39 101 166 187 188 192 196 204 208 208 211 214 213 217 214 212 216 193 193 195 197 200 205 206 208 211 213 217 236 250 228 118 109 126 127 121 115 107 105 102 100
21 13 14 9 11 348 264 170 185 196 196 204 209 204 209 228 224 213 205 186 192 197 202 209 214 216 222 213 212 216 230 236 208 145 132 141 138 137 136 131 125 123 118
18 15 3 3 2 357 352 14 174 180 184 202 213 202 212 237 250 215 179 181 191 197 206 208 213 223 221 217 189 199 224 224 182 130 139 145 143 148 154 154 145 140 137
14 8 1 356 349 348 349 350 341 160 182 209 212 210 203 217 242 245 202 186 188 193 204 193 208 216 223 215 189 203 204 193 152 123 144 147 148 157 167 169 162 157 150
7 4 1 347 343 337 336 327 326 327 239 216 227 226 205 202 223 246 248 206 197 193 196 201 212 225 218 209 195 204 185 187 154 135 141 156 154 162 173 178 174 171 167
356 351 353 339 332 326 323 309 288 288 291 261 216 223 228 205 209 221 254 255 235 211 188 194 217 239 208 236 229 193 173 171 149 139 149 160 162 165 171 178 180 180 178
349 342 338 322 324 322 319 314 303 269 249 245 239 237 224 213 212 206 221 245 253 247 219 207 220 223 184 201 238 240 188 169 164 153 153 160 164 172 173 173 175 181 184
345 338 327 321 324 314 304 293 283 273 253 233 231 235 241 232 222 202 202 224 234 241 253 229 234 222 184 185 190 216 212 159 173 158 160 163 163 168 175 176 172 177 185
342 335 327 326 320 308 297 282 270 268 261 241 226 221 229 239 240 217 204 210 230 228 232 244 215 216 201 196 204 205 200 171 185 189 190 178 160 158 162 174 173 174 184
345 338 328 322 312 311 308 298 286 274 266 256 242 229 219 225 242 240 217 213 210 215 239 264 242 217 206 208 225 213 193 187 184 185 200 182 161 161 159 164 168 181 185
350 341 330 327 326 325 321 310 304 298 292 276 258 249 231 222 226 231 226 210 203 201 208 225 247 247 246 257 244 290 284 214 194 185 183 183 191 168 160 166 174 166 175
350 343 338 339 336 334 326 317 304 297 288 273 267 263 247 233 224 228 218 210 196 193 201 208 208 209 251 252 189 198 274 302 275 207 178 183 203 175 172 179 173 165 167
352 346 341 339 334 333 334 330 320 315 304 293 285 272 260 250 230 224 221 212 201 194 199 200 199 197 209 227 223 181 179 210 248 279 218 187 195 183 180 203 185 169 163
353 347 343 345 343 342 337 328 322 312 305 301 303 295 285 267 255 231 223 214 208 201 198 201 199 203 199 208 221 219 208 178 170 233 263 225 205 193 190 194 200 181 161
356 352 350 354 353 350 345 341 332 322 309 304 307 306 305 289 276 259 237 221 212 207 204 202 198 202 207 205 202 200 215 228 201 173 215 249 255 226 252 225 213 177 152
360 357 357 1 2 357 354 353 352 343 339 339 337 329 322 309 300 297 265 239 225 216 209 205 206 204 210 211 204 199 187 182 193 185 189 197 209 231 258 277 244 184 144